Location: Unspecified
(48.2082°N, 0.0000°E)
Time: 17:24:45
(UTC+00:00)

Tiros 1 despin weight - Pass Details

Date: 24 June 2019
Orbit: 594 x 642 km, 48.2° (Epoch: 17 August)

Event Time Altitude Azimuth Distance (km) Brightness Sun altitude
Rises 22:51:23 0° 237° (WSW) 2,852 ? -16.6°
Reaches altitude 10° 22:53:44 10° 232° (SW) 1,944 ? -16.7°
Maximum altitude 22:58:03 51° 157° (SSE) 754 ? -16.9°
Drops below altitude 10° 23:02:20 10° 81° (E) 1,932 ? -17.1°
Sets 23:04:40 0° 77° (ENE) 2,833 ? -17.2°
